#timestamp,LO_Frequency,Hit,StdDev 
1570330815.4,286046995.1,P
1570330835.2,286046996.5,N
1570330855.1,286046995.1,P
1570330856.0,286046995.1,Y
1570330875.8,286046999.4,P
1570330895.7,286046997.0,N
1570330915.5,286046997.5,N
1570330935.3,286046997.1,N
1570330955.2,286046997.8,N
1570330975.0,286046997.2,N
1570330975.9,286046997.2,Y
1570330995.8,286047000.1,P
1570331015.6,286046996.8,N
1570331035.4,286046997.9,N
1570331055.3,286046995.1,Y
1570331075.1,286046996.5,P
1570331095.8,286046998.6,N
1570331115.7,286047001.7,N
1570331135.5,286047001.4,N
1570331155.4,286046998.2,N
1570331175.2,286047001.0,N
1570331195.0,286047000.8,N
1570331195.9,286047000.8,N
1570331215.8,286046999.4,N
1570331235.6,286046998.5,N
1570331255.4,286046999.9,N
1570331275.3,286047005.9,Y
1570331295.1,286047003.1,P
1570331315.9,286047007.6,P
1570331335.7,286047003.0,N
1570331355.5,286047002.0,N
1570331375.4,286047002.4,N
1570331395.2,286047004.0,N
1570331415.0,286047005.5,N
1570331415.9,286047005.5,N
1570331435.8,286047001.3,N
1570331455.6,286047004.3,N
1570331475.5,286047002.5,N
1570331495.3,286047003.2,N
1570331515.1,286047001.5,N
1570331535.9,286047001.4,N
1570331555.7,286047004.1,N
1570331575.5,286047003.2,N
1570331595.4,286047005.9,Y
1570331615.2,286047000.3,P
1570331635.1,286047002.2,N
1570331636.0,286047002.2,N
1570331655.8,286047007.6,Y
1570331675.6,286047003.7,P
1570331695.5,286047004.0,P
1570331715.3,286047004.4,P
1570331735.2,286047002.7,N
1570331755.9,286047002.4,N
1570331775.7,286047002.7,Y
1570331795.6,286047000.9,P
1570331815.4,286046998.3,N
1570331835.2,286046996.5,N
1570331855.1,286046997.2,N
1570331856.0,286046997.2,N
1570331875.8,286046997.6,N
1570331895.7,286046996.4,N
1570331915.5,286046996.2,N
1570331935.3,286046994.0,N
1570331955.2,286046995.6,N
1570331975.9,286046997.4,N
1570331995.7,286046995.4,N
1570332015.6,286046995.0,N
1570332035.4,286046998.9,N
1570332055.2,286047000.9,N
1570332075.1,286046999.0,N
1570332076.0,286046999.0,N
1570332095.8,286046999.0,N
1570332115.7,286047000.1,N
1570332135.5,286047001.3,N
1570332155.3,286046998.5,N
1570332175.2,286046997.9,N
1570332195.0,286046993.5,N
1570332195.9,286046993.5,N
1570332215.7,286046993.6,N
1570332235.6,286046997.0,N
1570332255.4,286046997.0,N
1570332275.3,286046999.4,N
1570332295.1,286047004.2,N
1570332296.0,286047004.2,N
1570332315.8,286047002.2,N
1570332335.7,286047000.2,N
1570332355.5,286047002.8,N
1570332375.3,286047000.0,N
1570332395.2,286046998.2,N
1570332415.0,286046998.1,N
1570332415.9,286046998.1,N
1570332435.8,286046997.7,N
1570332455.6,286046998.7,N
1570332475.4,286046998.6,N
1570332495.3,286047000.8,N
1570332515.1,286047001.2,N
1570332535.8,286046998.3,N
1570332555.7,286047000.4,N
1570332575.5,286047002.3,N
1570332595.4,286047001.6,N
1570332615.2,286047006.7,N
1570332635.0,286047007.2,N
1570332635.9,286047007.2,N
1570332655.8,286047010.6,N
1570332675.6,286047013.5,Y
1570332695.5,286047011.6,P
1570332715.3,286047010.5,N
1570332735.1,286047008.5,N
1570332755.9,286047009.5,N
1570332775.7,286047014.4,Y
1570332795.5,286047003.9,P
1570332815.4,286047001.9,N
1570332835.2,286046999.1,N
1570332855.1,286046994.9,N
1570332856.0,286046994.9,N
1570332875.8,286046996.1,N
1570332895.6,286046995.8,N
1570332915.5,286046993.5,N
1570332935.3,286046999.5,N
1570332955.2,286047002.7,N
1570332975.9,286047000.7,N
1570332995.7,286046998.8,N
1570333015.6,286047004.1,N
1570333035.4,286047005.9,N
1570333055.2,286047008.4,N
1570333075.1,286047005.9,N
1570333076.0,286047005.9,N
1570333095.8,286047003.5,N
1570333115.7,286047001.8,N
1570333135.5,286047007.0,N
1570333155.3,286047008.2,N
1570333175.2,286047009.8,N
1570333195.0,286047010.8,N
1570333195.9,286047010.8,N
1570333215.7,286047010.2,N
1570333235.6,286047013.2,N
1570333255.4,286047011.5,N
1570333275.3,286047012.0,N
1570333295.1,286047013.6,N
1570333296.0,286047013.6,N
1570333315.8,286047016.2,N
1570333335.7,286047014.5,N
1570333355.5,286047017.9,N
1570333375.3,286047019.4,N
1570333395.2,286047019.8,N
1570333415.0,286047022.3,Y
1570333415.9,286047022.3,P
1570333435.8,286047016.6,N
1570333455.6,286047016.7,N
1570333475.4,286047013.5,N
1570333495.3,286047013.8,N
1570333515.1,286047013.3,Y
1570333535.9,286046999.2,P
1570333555.7,286046999.3,N
1570333575.5,286046993.6,N
1570333595.4,286046993.9,N
1570333615.2,286046989.3,N
1570333635.0,286046989.1,N
1570333635.9,286046989.1,N
1570333655.8,286046988.8,N
1570333675.6,286046989.4,N
1570333695.5,286046989.3,N
1570333715.3,286046989.3,N
1570333735.1,286046990.7,N
1570333755.9,286046990.8,N
1570333775.7,286046992.5,N
1570333795.5,286046993.7,N
1570333815.4,286046990.5,N
1570333835.2,286046991.0,N
1570333855.1,286046989.0,N
1570333856.0,286046989.0,N
1570333875.8,286046989.0,N
1570333895.6,286046992.8,N
1570333915.5,286046988.5,N
1570333935.3,286046987.3,N
1570333955.1,286046990.0,N
1570333975.9,286046989.1,N
1570333995.7,286046988.7,N
1570334015.6,286046989.7,N
1570334035.4,286046989.5,N
1570334055.2,286046990.0,N
1570334075.1,286046989.0,N
1570334076.0,286046989.0,Y
1570334095.8,286046999.8,P
1570334115.7,286046998.3,N
1570334135.5,286047001.2,N
1570334155.3,286047002.3,N
1570334175.2,286047001.5,N
1570334195.9,286047002.8,N
1570334215.7,286047003.9,N
1570334235.6,286047002.6,N
1570334255.4,286047001.7,N
1570334275.2,286046999.9,N
1570334295.1,286047000.8,N
1570334296.0,286047000.8,N
1570334315.8,286047002.8,N
1570334335.7,286047003.8,N
1570334355.5,286047001.9,N
1570334375.3,286047000.6,N
1570334395.2,286047002.0,N
